Managua, Nicaragua

9:36 AM CST on February 14, 2016 (GMT -0600)
Augusto Cesar Sandino

Weather History for MNMG - December, 2012

Change the Weather History Date:

Saturday, December 8, 2012

  Actual Average Record
Temperature  
Mean Temperature 80 °F -  
Max Temperature 91 °F 87 °F 91 °F (1996)
Min Temperature 69 °F 69 °F 68 °F (2000)
Cooling Degree Days 15    
Growing Degree Days 30 (Base 50)    
Moisture  
Dew Point 66 °F    
Average Humidity 67    
Maximum Humidity 88    
Minimum Humidity 38    
Precipitation  
Precipitation 0.00 in - - ()
Sea Level Pressure  
Sea Level Pressure 29.82 in    
Wind  
Wind Speed 3 mph ()    
Max Wind Speed 18 mph    
Max Gust Speed -    
Visibility 6.2 miles    
Events      
Averages and records for this station are not official NWS values.
T = Trace of Precipitation, MM = Missing Value Source: Averaged Metar Reports

Daily Weather History Graph

Daily Weather History Graph

Search for Another Location

Airport or City:

Trip Planner

Search our weather history database for the weather conditions in past years. The results will help you decide how hot, cold, wet, or windy it might be!

Date:

Astronomy

Dec. 08, 2012 Rise Set
Actual Time 5:53 AM CST 5:19 PM CST
Civil Twilight 5:30 AM CST 5:42 PM CST
Nautical Twilight 5:04 AM CST 6:09 PM CST
Astronomical Twilight 4:38 AM CST 6:35 PM CST
Moon 1:01 AM CST (12/8) 1:11 PM CST (12/8)
Length of Visible Light 12h 11m
Length of Day
11h 26m
Waning Crescent, 28% of the Moon is Illuminated
Dec 8
Waning Crescent
Dec 13
New
Dec 19
First Quarter
Dec 28
Full
Jan 4
Last Quarter

Hourly Weather History & Observations

Time (CST) Temp. Heat Index Dew Point Humidity Pressure Visibility Wind Dir Wind Speed Gust Speed Precip Events Conditions
12:00 AM 71.6 °F - 66.2 °F 83% 29.83 in 6.2 mi Calm Calm - N/A   Partly Cloudy
1:00 AM 71.6 °F - 66.2 °F 83% 29.83 in 6.2 mi Calm Calm - N/A   Partly Cloudy
2:00 AM 71.6 °F - 64.4 °F 78% 29.80 in 6.2 mi Calm Calm - N/A   Partly Cloudy
3:00 AM 71.6 °F - 66.2 °F 83% 29.80 in 6.2 mi Calm Calm - N/A   Partly Cloudy
4:00 AM 71.6 °F - 66.2 °F 83% 29.80 in 6.2 mi Calm Calm - N/A   Partly Cloudy
5:00 AM 69.8 °F - 66.2 °F 88% 29.83 in 6.2 mi Calm Calm - N/A   Partly Cloudy
6:00 AM 69.8 °F - 66.2 °F 88% 29.86 in 6.2 mi SSE 4.6 mph - N/A   Partly Cloudy
7:00 AM 73.4 °F - 66.2 °F 78% 29.86 in 6.2 mi South 4.6 mph - N/A   Partly Cloudy
8:00 AM 77.0 °F - 68.0 °F 74% 29.89 in 6.2 mi Calm Calm - N/A   Partly Cloudy
9:00 AM 82.4 °F 83.9 °F 64.4 °F 54% 29.89 in 6.2 mi NE 4.6 mph - N/A   Partly Cloudy
10:00 AM 84.2 °F 85.6 °F 64.4 °F 51% 29.86 in - East 6.9 mph - N/A   Clear
11:00 AM 87.8 °F 89.4 °F 64.4 °F 46% 29.83 in - NNE 9.2 mph - N/A   Clear
12:00 PM 89.6 °F 91.1 °F 64.4 °F 43% 29.80 in 6.2 mi East 9.2 mph - N/A   Partly Cloudy
1:00 PM 91.4 °F 93.2 °F 64.4 °F 41% 29.77 in 6.2 mi ESE 16.1 mph - N/A   Partly Cloudy
2:00 PM 91.4 °F 92.1 °F 62.6 °F 38% 29.74 in 6.2 mi East 13.8 mph - N/A   Partly Cloudy
3:00 PM 91.4 °F 93.2 °F 64.4 °F 41% 29.74 in 6.2 mi ESE 18.4 mph - N/A   Partly Cloudy
4:00 PM 87.8 °F 90.4 °F 66.2 °F 49% 29.74 in - East 13.8 mph - N/A   Clear
5:00 PM 86.0 °F 89.4 °F 68.0 °F 55% 29.77 in 6.2 mi SE 11.5 mph - N/A   Partly Cloudy
6:00 PM 82.4 °F 85.4 °F 68.0 °F 62% 29.80 in 6.2 mi ESE 4.6 mph - N/A   Partly Cloudy
7:00 PM 80.6 °F 83.2 °F 68.0 °F 65% 29.80 in 6.2 mi Calm Calm - N/A   Partly Cloudy
8:00 PM 78.8 °F - 69.8 °F 74% 29.83 in 6.2 mi Calm Calm - N/A   Partly Cloudy
9:00 PM 77.0 °F - 69.8 °F 78% 29.86 in 6.2 mi SE 4.6 mph - N/A   Partly Cloudy
10:00 PM 77.0 °F - 69.8 °F 78% 29.86 in 6.2 mi Calm Calm - N/A   Partly Cloudy
11:00 PM 75.2 °F - 69.8 °F 83% 29.86 in 6.2 mi Calm Calm - N/A   Partly Cloudy